Location: Newark
(32.2136°N, 35.2820°E)
Time: 00:20:20
(UTC+00:00)

LightSail 2 - Visible Passes

Search period start: 19 September 2019 00:00
Search period end: 29 September 2019 00:00
Orbit: 701 x 731 km, 24.0° (Epoch: 18 September)

Date Brightness Start Highest point End Pass type
(mag) Time Alt. Az. Time Alt. Az. Time Alt. Az.
20 Sep 7.1 02:17:28 10° SSW 02:20:58 19° SSE 02:24:29 10° ESE visible
21 Sep 7.2 01:23:52 15° SSE 01:23:56 15° SSE 01:26:48 10° SE visible
22 Sep 6.6 02:09:18 17° SSW 02:11:53 25° SSE 02:15:59 10° ESE visible
23 Sep 7.0 01:15:41 20° SSE 01:15:41 20° SSE 01:18:37 10° ESE visible
23 Sep 6.3 02:55:25 10° WSW 02:59:54 32° S 03:04:24 10° ESE visible
24 Sep 6.3 02:01:05 24° SSW 02:02:49 30° S 02:07:13 10° ESE visible
25 Sep 6.9 01:07:27 22° SE 01:07:27 22° SE 01:09:59 10° ESE visible
25 Sep 6.2 02:46:28 11° WSW 02:50:52 32° S 02:55:22 10° ESE visible
26 Sep 6.1 01:52:50 30° SSW 01:53:46 32° S 01:58:16 10° ESE visible
27 Sep 7.1 00:59:12 20° SE 00:59:12 20° SE 01:01:07 10° ESE visible
27 Sep 6.3 02:38:13 14° WSW 02:41:48 29° S 02:46:10 10° SE visible
28 Sep 6.1 01:44:36 31° S 01:44:42 31° S 01:49:10 10° ESE visible
